{"data":{"norad_id":43633,"epoch":"2026-05-25T02:50:05.542080Z","epoch_age_seconds":75032,"freshness":"FRESH","line1":"1 43633U 18074B   26145.11811970 -.00000034  00000+0  00000+0 0  9991","line2":"2 43633   0.0049  68.4194 0000776 228.0182 157.7772  1.00269046 28115","mean_motion":1.00269046,"eccentricity":7.76e-5,"inclination_deg":0.0049,"raan_deg":68.4194,"arg_perigee_deg":228.0182,"mean_anomaly_deg":157.7772,"bstar":0,"rev_number":2811,"period_min":1436.1361331791,"perigee_km":35784.090777012,"apogee_km":35790.634862584,"semimajor_km":42165.499819798,"source":"CELESTRAK","updated_at":"2026-05-25T13:38:14.336870Z"}}